ITY935 EDDS-LIEO

Flight info

Callsign ITY935
Flight time 1h 20m
Altitude 37000
Route ROTWE7H/07 ROTWE Y126 TUBLO N850 NATOR DCT TRA DCT RIPUS DCT GERSA DCT SOSON DCT ODINA DCT KALMO DCT ELB DCT VELAD DCT NUCVO/N0400F190 L5 BATOX
Aircraft A320/M-SDE3FGHIRWY/LB1

Departure

Time 2026-05-04 18:18
Airport Stuttgart Airport (EDDS)

Arrival

Time 2026-05-04 19:39
Airport Olbia Costa Smeralda Airport (LIEO)
Time Latitude Longitude Altitude Speed Heading
2026-05-04 17:46 48.68943 9.19644 1315 ft 0 kts 344°
2026-05-04 18:06 48.68941 9.19645 1314 ft 2 kts 344°
2026-05-04 18:07 48.68916 9.19656 1312 ft 4 kts 344°
2026-05-04 18:07 48.68895 9.19666 1311 ft 3 kts 344°
2026-05-04 18:07 48.68871 9.19669 1309 ft 4 kts 28°
2026-05-04 18:07 48.68856 9.19642 1309 ft 4 kts 73°
2026-05-04 18:08 48.68854 9.19632 1309 ft 1 kts 74°
2026-05-04 18:10 48.68855 9.19635 1309 ft 1 kts 74°
2026-05-04 18:10 48.68858 9.19651 1309 ft 2 kts 74°
2026-05-04 18:10 48.68862 9.19676 1308 ft 3 kts 74°
2026-05-04 18:10 48.68871 9.19724 1307 ft 9 kts 74°
2026-05-04 18:11 48.68900 9.19836 1304 ft 12 kts 59°
2026-05-04 18:11 48.68943 9.19942 1303 ft 11 kts 58°
2026-05-04 18:11 48.68984 9.20040 1302 ft 11 kts 58°
2026-05-04 18:11 48.69009 9.20147 1300 ft 11 kts 77°
2026-05-04 18:12 48.69032 9.20275 1295 ft 14 kts 75°
2026-05-04 18:12 48.69059 9.20420 1290 ft 15 kts 74°
2026-05-04 18:12 48.69011 9.20549 1284 ft 15 kts 136°
2026-05-04 18:12 48.68963 9.20688 1278 ft 16 kts 77°
2026-05-04 18:13 48.68995 9.20866 1275 ft 19 kts 74°
2026-05-04 18:13 48.69036 9.21078 1276 ft 23 kts 72°
2026-05-04 18:13 48.69125 9.21543 1262 ft 25 kts 73°
2026-05-04 18:14 48.69173 9.21799 1252 ft 22 kts 75°
2026-05-04 18:14 48.69219 9.22046 1253 ft 26 kts 74°
2026-05-04 18:14 48.69266 9.22295 1240 ft 20 kts 75°
2026-05-04 18:15 48.69358 9.22775 1230 ft 27 kts 74°
2026-05-04 18:15 48.69455 9.23282 1220 ft 27 kts 73°
2026-05-04 18:15 48.69509 9.23571 1214 ft 30 kts 74°
2026-05-04 18:16 48.69563 9.23859 1208 ft 26 kts 75°
2026-05-04 18:16 48.69562 9.24050 1202 ft 18 kts 126°
2026-05-04 18:16 48.69544 9.24208 1196 ft 12 kts 75°
2026-05-04 18:17 48.69461 9.24330 1190 ft 6 kts 174°
2026-05-04 18:17 48.69421 9.24316 1191 ft 11 kts 205°
2026-05-04 18:17 48.69249 9.23569 1206 ft 93 kts 254°
2026-05-04 18:18 48.69018 9.22344 1232 ft 147 kts 254°
2026-05-04 18:18 48.68725 9.20720 1622 ft 161 kts 258°
2026-05-04 18:18 48.68448 9.19076 2337 ft 161 kts 257°
2026-05-04 18:18 48.68140 9.17382 2820 ft 176 kts 257°
2026-05-04 18:19 48.67387 9.13364 3446 ft 221 kts 255°
2026-05-04 18:19 48.66934 9.11014 3804 ft 245 kts 255°
2026-05-04 18:19 48.66435 9.08437 4325 ft 264 kts 254°
2026-05-04 18:20 48.65909 9.05728 5149 ft 271 kts 254°
2026-05-04 18:20 48.65370 9.02970 6049 ft 276 kts 253°
2026-05-04 18:20 48.64823 9.00168 6949 ft 280 kts 253°
2026-05-04 18:20 48.64267 8.97332 7819 ft 284 kts 253°
2026-05-04 18:21 48.63701 8.94443 8656 ft 289 kts 253°
2026-05-04 18:21 48.63125 8.91501 9478 ft 294 kts 252°
2026-05-04 18:21 48.62538 8.88505 10182 ft 305 kts 252°
2026-05-04 18:21 48.61779 8.85402 10469 ft 326 kts 241°
2026-05-04 18:22 48.60456 8.82484 10709 ft 347 kts 227°
2026-05-04 18:22 48.58806 8.79784 11281 ft 355 kts 226°
2026-05-04 18:22 48.57122 8.77028 12032 ft 358 kts 226°
2026-05-04 18:22 48.55436 8.74262 12834 ft 359 kts 226°
2026-05-04 18:23 48.53744 8.71477 13563 ft 361 kts 226°
2026-05-04 18:23 48.52163 8.68498 14222 ft 367 kts 236°
2026-05-04 18:23 48.50977 8.65059 14868 ft 373 kts 247°
2026-05-04 18:23 48.50214 8.61304 15522 ft 377 kts 253°
2026-05-04 18:24 48.49526 8.57473 16162 ft 380 kts 253°
2026-05-04 18:24 48.48819 8.53613 16796 ft 383 kts 252°
2026-05-04 18:24 48.47867 8.49864 17397 ft 385 kts 242°
2026-05-04 18:24 48.46432 8.46453 17994 ft 387 kts 231°
2026-05-04 18:25 48.44565 8.43522 18562 ft 390 kts 220°
2026-05-04 18:25 48.42325 8.41185 19106 ft 394 kts 209°
2026-05-04 18:25 48.39811 8.39505 19656 ft 398 kts 200°
2026-05-04 18:25 48.37121 8.38467 20208 ft 401 kts 193°
2026-05-04 18:26 48.34382 8.37611 20738 ft 403 kts 193°
2026-05-04 18:26 48.31630 8.36743 21233 ft 406 kts 193°
2026-05-04 18:26 48.28862 8.35865 21713 ft 408 kts 193°
2026-05-04 18:26 48.26077 8.34978 22174 ft 410 kts 193°
2026-05-04 18:27 48.23277 8.34090 22602 ft 412 kts 193°
2026-05-04 18:27 48.20525 8.33226 23033 ft 414 kts 193°
2026-05-04 18:27 48.18584 8.32749 23305 ft 417 kts 188°
2026-05-04 18:27 48.15674 8.32604 23701 ft 421 kts 179°
2026-05-04 18:28 48.12749 8.33132 24087 ft 426 kts 173°
2026-05-04 18:28 48.08870 8.34108 24603 ft 428 kts 173°
2026-05-04 18:28 48.05918 8.34831 24966 ft 430 kts 173°
2026-05-04 18:28 48.02959 8.35545 25320 ft 432 kts 173°
2026-05-04 18:29 48.00950 8.36024 25564 ft 433 kts 173°
2026-05-04 18:29 47.97970 8.36729 25911 ft 435 kts 173°
2026-05-04 18:29 47.94976 8.37441 26221 ft 436 kts 173°
2026-05-04 18:29 47.91974 8.38163 26525 ft 438 kts 173°
2026-05-04 18:30 47.85925 8.39627 27117 ft 442 kts 173°
2026-05-04 18:30 47.82928 8.40352 27392 ft 443 kts 173°
2026-05-04 18:30 47.79843 8.41093 27660 ft 444 kts 173°
2026-05-04 18:31 47.76785 8.41825 27921 ft 445 kts 173°
2026-05-04 18:31 47.73762 8.42548 28135 ft 447 kts 173°
2026-05-04 18:31 47.70686 8.43281 28377 ft 448 kts 173°
2026-05-04 18:31 47.67611 8.43983 28678 ft 446 kts 174°
2026-05-04 18:32 47.64537 8.44543 28992 ft 444 kts 176°
2026-05-04 18:32 47.61467 8.44995 29307 ft 443 kts 177°
2026-05-04 18:32 47.58395 8.45389 29602 ft 442 kts 177°
2026-05-04 18:32 47.55334 8.45768 29907 ft 442 kts 177°
2026-05-04 18:33 47.52278 8.46159 30219 ft 440 kts 177°
2026-05-04 18:33 47.49230 8.46577 30510 ft 440 kts 176°
2026-05-04 18:33 47.46182 8.47019 30806 ft 439 kts 176°
2026-05-04 18:33 47.43143 8.47474 31100 ft 439 kts 176°
2026-05-04 18:34 47.40109 8.47934 31391 ft 438 kts 176°
2026-05-04 18:34 47.37075 8.48390 31670 ft 437 kts 176°
2026-05-04 18:34 47.34054 8.48835 31969 ft 437 kts 176°
2026-05-04 18:34 47.31031 8.49271 32265 ft 436 kts 176°
2026-05-04 18:35 47.28011 8.49703 32550 ft 436 kts 176°
2026-05-04 18:35 47.24997 8.50140 32826 ft 435 kts 176°
2026-05-04 18:35 47.21986 8.50581 33096 ft 434 kts 176°
2026-05-04 18:35 47.18985 8.51022 33374 ft 433 kts 176°
2026-05-04 18:36 47.15983 8.51461 33634 ft 433 kts 176°
2026-05-04 18:36 47.12988 8.51899 33896 ft 433 kts 177°
2026-05-04 18:36 47.09993 8.52334 34171 ft 432 kts 177°
2026-05-04 18:36 47.07003 8.52764 34451 ft 432 kts 177°
2026-05-04 18:37 47.04013 8.53193 34704 ft 432 kts 177°
2026-05-04 18:37 47.01024 8.53623 34915 ft 432 kts 177°
2026-05-04 18:37 46.98031 8.54051 35151 ft 433 kts 177°
2026-05-04 18:37 46.95037 8.54484 35368 ft 432 kts 177°
2026-05-04 18:38 46.92039 8.54923 35569 ft 433 kts 177°
2026-05-04 18:38 46.89045 8.55360 35747 ft 433 kts 177°
2026-05-04 18:38 46.86044 8.55795 35944 ft 433 kts 178°
2026-05-04 18:38 46.83047 8.56225 36120 ft 433 kts 178°
2026-05-04 18:39 46.80045 8.56654 36288 ft 433 kts 178°
2026-05-04 18:39 46.77042 8.57082 36430 ft 434 kts 178°
2026-05-04 18:39 46.74040 8.57509 36610 ft 434 kts 178°
2026-05-04 18:39 46.71032 8.57936 36797 ft 434 kts 178°
2026-05-04 18:40 46.68036 8.58362 36974 ft 432 kts 178°
2026-05-04 18:40 46.62070 8.59213 37045 ft 430 kts 178°
2026-05-04 18:41 46.56166 8.60051 37048 ft 429 kts 178°
2026-05-04 18:41 46.50221 8.60892 37056 ft 429 kts 178°
2026-05-04 18:42 46.44228 8.61739 37062 ft 430 kts 178°
2026-05-04 18:42 46.38323 8.62585 37060 ft 429 kts 178°
2026-05-04 18:43 46.32378 8.63425 37058 ft 429 kts 178°
2026-05-04 18:43 46.26430 8.64251 37061 ft 429 kts 178°
2026-05-04 18:44 46.20483 8.65087 37061 ft 429 kts 178°
2026-05-04 18:44 46.14536 8.65923 37066 ft 429 kts 178°
2026-05-04 18:45 46.08641 8.67462 37067 ft 436 kts 165°
2026-05-04 18:45 46.02945 8.70529 37065 ft 437 kts 163°
2026-05-04 18:46 45.97240 8.73589 37066 ft 438 kts 164°
2026-05-04 18:46 45.91524 8.76646 37064 ft 439 kts 164°
2026-05-04 18:47 45.85793 8.79711 37061 ft 439 kts 164°
2026-05-04 18:47 45.80056 8.82769 37067 ft 440 kts 164°
2026-05-04 18:48 45.74309 8.85827 37065 ft 442 kts 164°
2026-05-04 18:48 45.68540 8.88900 37069 ft 442 kts 164°
2026-05-04 18:49 45.62774 8.91958 37072 ft 442 kts 164°
2026-05-04 18:49 45.57041 8.94976 37072 ft 442 kts 165°
2026-05-04 18:50 45.51274 8.98013 37072 ft 442 kts 164°
2026-05-04 18:50 45.45500 9.01057 37068 ft 443 kts 165°
2026-05-04 18:51 45.39722 9.04105 37062 ft 443 kts 165°
2026-05-04 18:51 45.33944 9.07131 37059 ft 443 kts 165°
2026-05-04 18:52 45.28159 9.10147 37061 ft 443 kts 165°
2026-05-04 18:52 45.22369 9.13164 37059 ft 443 kts 165°
2026-05-04 18:53 45.16575 9.16180 37055 ft 444 kts 165°
2026-05-04 18:53 45.10783 9.19197 37060 ft 444 kts 165°
2026-05-04 18:54 45.04986 9.22209 37055 ft 444 kts 165°
2026-05-04 18:54 44.99177 9.25215 37054 ft 444 kts 165°
2026-05-04 18:55 44.93364 9.28213 37056 ft 445 kts 165°
2026-05-04 18:55 44.84642 9.32708 37054 ft 445 kts 165°
2026-05-04 18:56 44.78823 9.35692 37054 ft 445 kts 165°
2026-05-04 18:56 44.73031 9.38653 37059 ft 445 kts 165°
2026-05-04 18:57 44.67197 9.41631 37060 ft 446 kts 165°
2026-05-04 18:57 44.61365 9.44609 37061 ft 446 kts 165°
2026-05-04 18:58 44.55526 9.47586 37062 ft 446 kts 165°
2026-05-04 18:58 44.49681 9.50565 37061 ft 447 kts 166°
2026-05-04 18:59 44.43836 9.53526 37065 ft 447 kts 166°
2026-05-04 18:59 44.37973 9.56481 37069 ft 448 kts 166°
2026-05-04 19:00 44.32108 9.59436 37076 ft 449 kts 166°
2026-05-04 19:00 44.26243 9.62438 37082 ft 449 kts 165°
2026-05-04 19:01 44.20382 9.65485 37084 ft 450 kts 165°
2026-05-04 19:01 44.14503 9.68531 37091 ft 451 kts 165°
2026-05-04 19:02 44.08620 9.71557 37089 ft 451 kts 165°
2026-05-04 19:02 44.02732 9.74578 37094 ft 451 kts 165°
2026-05-04 19:03 43.96839 9.77598 37096 ft 452 kts 166°
2026-05-04 19:03 43.90945 9.80615 37097 ft 452 kts 166°
2026-05-04 19:04 43.85081 9.83604 37103 ft 452 kts 166°
2026-05-04 19:04 43.79178 9.86614 37104 ft 452 kts 166°
2026-05-04 19:05 43.73274 9.89613 37103 ft 452 kts 166°
2026-05-04 19:05 43.67365 9.92599 37107 ft 452 kts 166°
2026-05-04 19:06 43.61456 9.95578 37107 ft 452 kts 166°
2026-05-04 19:06 43.55550 9.98570 37105 ft 452 kts 166°
2026-05-04 19:07 43.49642 10.01554 37112 ft 452 kts 166°
2026-05-04 19:07 43.43728 10.04527 37103 ft 453 kts 166°
2026-05-04 19:08 43.37808 10.07494 37099 ft 453 kts 166°
2026-05-04 19:08 43.31885 10.10455 37095 ft 453 kts 166°
2026-05-04 19:09 43.25958 10.13415 37102 ft 454 kts 166°
2026-05-04 19:09 43.20021 10.16378 37096 ft 454 kts 166°
2026-05-04 19:10 43.14071 10.19334 37089 ft 455 kts 166°
2026-05-04 19:10 43.08117 10.22290 37096 ft 456 kts 166°
2026-05-04 19:11 43.02167 10.25244 37094 ft 456 kts 166°
2026-05-04 19:11 42.96182 10.28202 37095 ft 456 kts 166°
2026-05-04 19:12 42.87220 10.32617 37098 ft 457 kts 166°
2026-05-04 19:13 42.81233 10.35559 37102 ft 457 kts 166°
2026-05-04 19:13 42.75285 10.38471 37101 ft 458 kts 166°
2026-05-04 19:14 42.69309 10.41491 37099 ft 459 kts 164°
2026-05-04 19:14 42.63388 10.44769 37101 ft 460 kts 163°
2026-05-04 19:15 42.57473 10.48091 37104 ft 460 kts 163°
2026-05-04 19:15 42.51540 10.51345 37105 ft 460 kts 164°
2026-05-04 19:16 42.46604 10.54018 37104 ft 460 kts 164°
2026-05-04 19:16 42.40656 10.57237 37110 ft 461 kts 164°
2026-05-04 19:17 42.34707 10.60464 37111 ft 461 kts 164°
2026-05-04 19:17 42.28753 10.63679 37110 ft 461 kts 164°
2026-05-04 19:18 42.22796 10.66883 37052 ft 462 kts 164°
2026-05-04 19:18 42.19814 10.68488 36699 ft 462 kts 164°
2026-05-04 19:18 42.16827 10.70095 35994 ft 462 kts 164°
2026-05-04 19:18 42.13843 10.71698 35267 ft 462 kts 165°
2026-05-04 19:19 42.10855 10.73298 34536 ft 463 kts 165°
2026-05-04 19:19 42.07852 10.74900 33810 ft 465 kts 166°
2026-05-04 19:19 42.04789 10.76207 33084 ft 460 kts 174°
2026-05-04 19:19 42.01654 10.76919 32350 ft 456 kts 180°
2026-05-04 19:20 41.98489 10.77417 31632 ft 459 kts 180°
2026-05-04 19:20 41.95301 10.77917 30903 ft 463 kts 180°
2026-05-04 19:20 41.92086 10.78417 30176 ft 467 kts 180°
2026-05-04 19:20 41.88848 10.78917 29448 ft 470 kts 180°
2026-05-04 19:21 41.85588 10.79423 28724 ft 473 kts 179°
2026-05-04 19:21 41.82355 10.79926 27999 ft 475 kts 179°
2026-05-04 19:21 41.79070 10.80436 27279 ft 476 kts 178°
2026-05-04 19:21 41.75776 10.80948 26553 ft 478 kts 178°
2026-05-04 19:22 41.72468 10.81464 25823 ft 479 kts 177°
2026-05-04 19:22 41.69147 10.81982 25094 ft 480 kts 177°
2026-05-04 19:22 41.65849 10.82499 24369 ft 476 kts 176°
2026-05-04 19:22 41.62577 10.83015 23644 ft 471 kts 176°
2026-05-04 19:23 41.59343 10.83521 22918 ft 465 kts 176°
2026-05-04 19:23 41.56149 10.84014 22186 ft 459 kts 176°
2026-05-04 19:23 41.52995 10.84501 21463 ft 454 kts 176°
2026-05-04 19:23 41.49871 10.84890 20733 ft 446 kts 182°
2026-05-04 19:24 41.46834 10.84424 20006 ft 435 kts 197°
2026-05-04 19:24 41.44059 10.82975 19309 ft 424 kts 211°
2026-05-04 19:24 41.41695 10.80693 18627 ft 416 kts 225°
2026-05-04 19:24 41.39862 10.77756 18221 ft 411 kts 238°
2026-05-04 19:25 41.38599 10.74365 17821 ft 408 kts 249°
2026-05-04 19:25 41.37579 10.70847 17420 ft 406 kts 249°
2026-05-04 19:25 41.36563 10.67353 17020 ft 404 kts 249°
2026-05-04 19:25 41.35547 10.63872 16620 ft 403 kts 249°
2026-05-04 19:26 41.34532 10.60410 16219 ft 401 kts 249°
2026-05-04 19:26 41.33519 10.56967 15817 ft 398 kts 249°
2026-05-04 19:26 41.32510 10.53542 15418 ft 397 kts 249°
2026-05-04 19:26 41.31507 10.50133 15017 ft 395 kts 249°
2026-05-04 19:27 41.30509 10.46742 14614 ft 393 kts 249°
2026-05-04 19:27 41.29514 10.43375 14213 ft 387 kts 249°
2026-05-04 19:27 41.28553 10.40133 13812 ft 377 kts 249°
2026-05-04 19:27 41.27603 10.36931 13411 ft 368 kts 249°
2026-05-04 19:28 41.26677 10.33804 13011 ft 359 kts 249°
2026-05-04 19:28 41.25773 10.30757 12612 ft 351 kts 249°
2026-05-04 19:28 41.24888 10.27773 12210 ft 343 kts 249°
2026-05-04 19:28 41.24018 10.24847 11809 ft 336 kts 249°
2026-05-04 19:29 41.23167 10.21987 11412 ft 330 kts 249°
2026-05-04 19:29 41.22329 10.19175 11008 ft 324 kts 248°
2026-05-04 19:29 41.21507 10.16420 10610 ft 319 kts 248°
2026-05-04 19:29 41.20546 10.13790 10205 ft 314 kts 242°
2026-05-04 19:30 41.19533 10.11252 9813 ft 309 kts 241°
2026-05-04 19:30 41.18529 10.08745 9407 ft 305 kts 241°
2026-05-04 19:30 41.17508 10.06302 9008 ft 301 kts 237°
2026-05-04 19:30 41.16383 10.03973 8604 ft 298 kts 236°
2026-05-04 19:31 41.15261 10.01679 8196 ft 295 kts 236°
2026-05-04 19:31 41.14145 9.99411 7797 ft 292 kts 236°
2026-05-04 19:31 41.13034 9.97163 7392 ft 288 kts 236°
2026-05-04 19:31 41.11945 9.94939 6984 ft 286 kts 236°
2026-05-04 19:32 41.10873 9.92748 6587 ft 282 kts 236°
2026-05-04 19:32 41.09812 9.90584 6186 ft 278 kts 236°
2026-05-04 19:32 41.08764 9.88445 5783 ft 274 kts 236°
2026-05-04 19:32 41.07752 9.86313 5380 ft 272 kts 237°
2026-05-04 19:33 41.06747 9.84209 4982 ft 268 kts 234°
2026-05-04 19:33 41.05702 9.82177 4581 ft 265 kts 233°
2026-05-04 19:33 41.04660 9.80182 4180 ft 262 kts 233°
2026-05-04 19:33 41.03634 9.78205 3786 ft 259 kts 233°
2026-05-04 19:34 41.02622 9.76252 3377 ft 256 kts 233°
2026-05-04 19:34 41.01635 9.74348 3044 ft 251 kts 233°
2026-05-04 19:34 41.00680 9.72507 2998 ft 234 kts 232°
2026-05-04 19:34 40.99794 9.70801 2999 ft 216 kts 232°
2026-05-04 19:35 40.98962 9.69202 2845 ft 208 kts 232°
2026-05-04 19:35 40.98159 9.67658 2605 ft 197 kts 233°
2026-05-04 19:35 40.97405 9.66210 2387 ft 184 kts 234°
2026-05-04 19:35 40.96708 9.64872 2123 ft 169 kts 234°
2026-05-04 19:36 40.96070 9.63648 1897 ft 154 kts 235°
2026-05-04 19:36 40.95490 9.62536 1707 ft 141 kts 235°
2026-05-04 19:36 40.94940 9.61480 1439 ft 135 kts 235°
2026-05-04 19:36 40.94419 9.60488 1299 ft 133 kts 236°
2026-05-04 19:37 40.93900 9.59484 1153 ft 132 kts 237°
2026-05-04 19:37 40.93387 9.58464 1022 ft 136 kts 236°
2026-05-04 19:37 40.92837 9.57419 847 ft 140 kts 236°
2026-05-04 19:37 40.92278 9.56357 623 ft 142 kts 236°
2026-05-04 19:38 40.91731 9.55290 468 ft 139 kts 236°
2026-05-04 19:38 40.91164 9.54238 270 ft 140 kts 236°
2026-05-04 19:38 40.90611 9.53178 70 ft 140 kts 235°
2026-05-04 19:38 40.90100 9.52193 36 ft 115 kts 233°
2026-05-04 19:39 40.89736 9.51510 33 ft 68 kts 234°
2026-05-04 19:39 40.89553 9.51163 31 ft 35 kts 235°
2026-05-04 19:39 40.89414 9.50897 33 ft 35 kts 235°
2026-05-04 19:39 40.89285 9.50652 34 ft 28 kts 235°
2026-05-04 19:40 40.89283 9.50487 34 ft 15 kts 289°
2026-05-04 19:40 40.89375 9.50450 34 ft 16 kts 29°
2026-05-04 19:40 40.89445 9.50570 34 ft 17 kts 55°
2026-05-04 19:40 40.89514 9.50701 34 ft 18 kts 55°
2026-05-04 19:41 40.89589 9.50845 33 ft 20 kts 55°
2026-05-04 19:41 40.89674 9.51006 34 ft 22 kts 55°
2026-05-04 19:41 40.89767 9.51184 34 ft 25 kts 55°
2026-05-04 19:41 40.89870 9.51377 34 ft 22 kts 55°
2026-05-04 19:42 40.89962 9.51505 34 ft 15 kts 14°
2026-05-04 19:42 40.90056 9.51478 34 ft 14 kts 352°
2026-05-04 19:42 40.90117 9.51562 34 ft 12 kts 56°
2026-05-04 19:42 40.90168 9.51609 34 ft 8 kts 338°
2026-05-04 19:43 40.90197 9.51578 34 ft 2 kts 324°
2026-05-04 19:43 40.90199 9.51576 34 ft 0 kts 324°
2026-05-04 19:43 40.90200 9.51575 33 ft 0 kts 324°